910  
ASUS43 KFGF 280110  
RWRFGF  
PRAIRIE TO PINES WEATHER ROUNDUP  
NATIONAL WEATHER SERVICE EASTERN NORTH DAKOTA/GRAND FORKS ND  
800 PM CDT TUE SEP 27 2022  
 
**SATELLITE DATA USED TO AUGMENT SKY COVER AT AUTOMATED STATIONS**  
***** WEATHER ACROSS EASTERN NORTH DAKOTA *****  
 
CITY SKY/WX TMP DP RH WIND PRES REMARKS
 
GRAND FORKS FAIR 46 30 53 N3 30.37S  
GRAND FRKS AFB FAIR 46 26 47 E3 30.35S  
GRAND FRKS NWS N/A 47 31 54 N1 30.33R  
DEVILS LAKE FAIR 48 27 44 E9 30.35S  
FARGO FAIR 46 27 47 NE5 30.36R  
WAHPETON ARPT FAIR 50 23 34 N6 30.34R  

 
 
***** WEATHER ACROSS CENTRAL AND WESTERN NORTH DAKOTA *****  
 
CITY SKY/WX TMP DP RH WIND PRES REMARKS
 
BISMARCK FAIR 56 37 49 E9 30.30R  
MINOT FAIR 56 33 42 E10 30.28R  
JAMESTOWN FAIR 46 31 55 E6 30.34R  
MINOT AFB PTCLDY 52 34 50 SE10 30.25S  
GARRISON N/A 57 39 51 E8 30.28R  
WILLISTON NOT AVBL  
DICKINSON FAIR 59 37 44 SE13 30.21S  
HETTINGER FAIR 62 39 42 E13 30.23S  

 
 
***** OTHER AIRPORT OBSERVATIONS IN OUR AREA *****  
 
CITY SKY/WX TMP DP RH WIND PRES REMARKS
 
WALHALLA FAIR 43 37 81 SE5 30.37S  
GRAFTON AIRPOR FAIR 45 32 61 NE3 30.39S HAZE  
VALLEY CITY AR FAIR 48 28 46 E6 30.36S  
CANDO FAIR 45 30 57 SE8 30.36S  
CAVALIER APRT FAIR 45 39 81 CALM 30.37S HAZE  
GWINNER CLEAR 46 28 49 NE7 30.35R  
SHEYENNE NWR N/A 47 29 49 NE2 29.95S  
ROLLA FAIR 48 23 37 SE10 30.34S  
***** THE ABOVE OBSERVATIONS ARE NON NWS ARE NOT QUALITY  
CONTROLLED AND MAY MIS-REPORT RAIN FOR SNOW...  

 
 
***** WEATHER ACROSS NORTHERN MINNESOTA *****  
 
CITY SKY/WX TMP DP RH WIND PRES REMARKS
 
FLAG ISLAND NOT AVBL  
WARROAD FAIR 43 37 81 CALM 30.39S  
ROSEAU N/A 46 36 66 CALM 30.39R  
HALLOCK FAIR 46 34 61 CALM 30.38S  
THF RVR FALLS FAIR 48 30 49 N3 30.39R  
BAUDETTE FAIR 43 35 73 CALM 30.39R  
WASKISH FAIR 46 36 66 N3 30.38R  
CROOKSTON FAIR 52 25 35 E5 30.39R  
STEPHEN NDAWN N/A 48 28 46 VRB1 N/A  
GREENBUSH NDAW N/A 43 30 61 VRB2 N/A  

 
***** WEATHER ACROSS CENTRAL AND WEST MINNESOTA *****  
 
CITY SKY/WX TMP DP RH WIND PRES REMARKS
 
FOSSTON FAIR 46 30 53 N3 30.38R  
BEMIDJI FAIR 40 33 76 CALM 30.37R  
PARK RAPIDS FAIR 46 31 55 CALM 30.36R  
ELBOW LAKE FAIR 51 32 49 NE3 30.36R  
WADENA FAIR 45 34 65 NE3 30.36R  
DETROIT LAKES FAIR 48 28 46 NE5 30.37R  
MOORHEAD FAIR 48 30 49 NE6 30.37R  
FERGUS FALLS FAIR 52 32 46 CALM 30.35R  
MORRIS MN FAIR 46 27 46 NE6 30.35S  
STAPLES FAIR 50 30 46 CALM 30.37R  

 
***** WEATHER ELSEWHERE ACROSS MINNESOTA *****  
 
CITY SKY/WX TMP DP RH WIND PRES REMARKS
 
DULUTH FAIR 43 32 65 N5 30.34R  
INTRNTL FALLS FAIR 37 33 85 CALM 30.37R  
ELY FAIR 36 30 80 CALM 30.35S  
CLOQUET FAIR 39 32 75 CALM 30.33S  
WHEATON N/A 54 25 32 NE5 30.36R  
BRAINERD FAIR 46 35 65 N3 30.36R  
HIBBING FAIR 33 31 92 NW3 30.36R  
ALEXANDRIA FAIR 48 33 56 NE6 30.36R  
SAINT CLOUD FAIR 44 36 73 CALM 30.35R  
MINNEAPOLIS FAIR 51 30 44 NE6 30.34R  

 
 
***** WEATHER ACROSS SOUTH DAKOTA *****  
 
CITY SKY/WX TMP DP RH WIND PRES REMARKS
 
SIOUX FALLS FAIR 57 35 43 E9 30.30R  
BROOKINGS FAIR N/A N/A N/A E6 30.33R  
WATERTOWN FAIR 51 28 41 E5 30.32R  
HURON FAIR 59 36 42 NE9 30.29R  
SISSETON N/A 50 26 39 NE6 30.33R  
ABERDEEN FAIR 53 32 44 NE8 30.32R  
MITCHELL FAIR 59 37 44 NE9 30.27R  
PIERRE FAIR 62 39 42 E10 30.23R  
MOBRIDGE FAIR 60 37 42 E12 30.25S  
RAPID CITY FAIR 62 37 39 E8 30.22S  

 
 
***** SOME WEATHER IN NEARBY STATES *****  
 
CITY SKY/WX TMP DP RH WIND PRES REMARKS
 
GLASGOW MT FAIR 76 41 28 SE14 30.03F  
GREAT FALLS MT FAIR 75 38 26 E6 30.03S  
CHEYENNE WY MOCLDY 65 39 38 SE3 30.34R  
SCOTTSBLUFF NE FAIR 66 43 43 E6 30.24S  
OMAHA NE FAIR 66 42 41 NE10 30.23R  
DES MOINES IA FAIR 62 34 35 N9 30.26R  
DAVENPORT IA FAIR 49 34 56 N8 30.27R  
CHICAGO IL MOCLDY 54 37 52 NW9 30.22R  
EAU CLAIRE WI FAIR 45 37 73 NE6 30.33R  
LA CROSSE WI FAIR 48 37 65 N6 30.32R  

 
 
***** SOME NATIONAL WEATHER *****  
 
CITY SKY/WX TMP DP RH WIND PRES REMARKS
 
LA GUARDIA NY FAIR 65 43 44 W8 29.93R  
RALEIGH NC MOCLDY 65 41 41 CALM 30.05R  
ATLANTA GA FAIR 66 38 35 N13 30.10R  
NEW ORLEANS LA FAIR 79 44 28 N10G23 30.04R  
OKLAHOMA CITY FAIR 76 47 35 S9 30.06S  
ALBUQUERQUE NM MOCLDY 72 44 36 NE26G39 30.28S  
SALT LAKE CITY FAIR 83 29 14 N7 30.11S  
LOS ANGELES CA FAIR 74 63 68 W13 29.83R  
BOISE ID FAIR 90 27 10 W3 29.92F  
SEATTLE WA MOCLDY 71 54 54 SW9 29.88R  

 
 
*** WEATHER ACROSS MANITOBA...SASKATCHEWAN AND ONTARIO ***  
***ONTARIO***  
 
CITY SKY/WX TMP DP RH WIND PRES REMARKS
 
GERALDTON NOT AVBL  
THUNDER BAY CLEAR 37 30 75 VRB2 30.35R  
SIOUX LOOKOUT PTCLDY 34 32 93 CALM 30.37R  
TORONTO MOCLDY 55 54 94 NW12 29.91R  
BIG TROUT LK CLEAR 28 27 93 NW2 30.36R  
PICKLE LAKE CLEAR 37 28 70 NE2 30.36R  
DRYDEN CLEAR 43 28 56 N5 30.37R  
KENORA PTCLDY 45 30 57 NW3 30.38S  

 
*** MANITOBA***  
 
CITY SKY/WX TMP DP RH WIND PRES REMARKS
 
BRANDON PTCLDY 50 30 46 SE8 30.32S  
DAUPHIN CLEAR 50 37 62 S7 30.27S  
ISLAND LAKE NOT AVBL  
PILOT MOUND N/A 41 30 65 E8 N/A  
THE PAS CLEAR 55 46 71 SE13 30.15F  
THOMPSON PTCLDY 52 41 66 S8 30.16F  
WINNIPEG PTCLDY 48 30 49 S6 30.37S  
LYNN LAKE CLOUDY 59 45 58 S9 30.00F  
CHURCHILL CLOUDY 45 30 57 S17 30.11F  
GILLAM MOCLDY 48 30 49 S10 30.23F  

 
***SASKATCHEWAN***  
 
CITY SKY/WX TMP DP RH WIND PRES REMARKS
 
ESTEVAN CLEAR N/A N/A N/A SE12 30.21F  
KINDERSLEY PTCLDY 73 37 27 W8 29.91S  
LLOYDMINSTER PTCLDY 70 45 40 SE14 29.90F  
PRINCE ALBERT MOCLDY 63 41 45 SE8 30.06F  
REGINA MOCLDY 63 37 39 SE17G25 30.14R  
YORKTON CLEAR 55 37 50 SE10 30.21S  
N. BATTLEFORD CLEAR 70 45 40 SE17 29.95F  
LA RONGE MOCLDY 66 45 45 S9 30.00F  
SASKATOON MOCLDY 70 41 35 E12G18 30.02S  
SWIFT CURRENT CLEAR 70 43 37 S15G21 29.99S  

 
NOTE: THESE ARE AUTOMATED STATIONS WITH LIMITED QUALITY CONTROL  
"FAIR" INDICATES FEW OR NO CLOUDS BELOW 12,000 FEET WITH NO  
SIGNIFICANT WEATHER AND/OR S TO VISIBILITY
.  
SKY/WX - SKY CONDITION AND SIGNIFICANT WEATHER.  
TMP - AIR TEMPERATURE. DP - DEWPOINT TEMPERATURE.  
RH - RELATIVE HUMIDITY. PRES - PRESSURE.  
HX - HEAT INDEX. WCI - WIND CHILL INDEX.  
$  
 
 
CLICK HERE TO GO TO PREVIOUS BULLETINS.

The Nexlab ND Page
The Nexlab MN Page Main Text Page